User: anonymous   Login
Location: Unspecified
(0.0000°N, 0.0000°E)
Time: 20:09:45
(UTC+00:00)
Language:

STARLINK-33674 - Orbit

View from above orbital plane
View from above orbital plane
View from above satellite
View from above satellite

Ground track
Ground track

The orbit is defined by the following mean orbital elements,

1 63329U          26145.49896720 +.00000000 +00000-0 +84364-3 0 00007
2 63329  42.9995 317.1387 0001594 264.7007  95.3663 15.27580099    06
Epoch (UTC): 25 May 2026 11:58:30
Eccentricity: 0.0001594
inclination: 42.9995°
perigee height: 482 km
apogee height: 484 km
right ascension of ascending node: 317.1387°
argument of perigee: 264.7007°
revolutions per day: 15.27580099
mean anomaly at epoch: 95.3663°

The dashed part of the orbit path shows where the satellite is in the earth's shadow,  

DLR